Tracking 33877 objects as of 19-Apr-2026
HD Live streaming from Space Station
objects crossing your sky now

YAOGAN-35 05C

Track YAOGAN-35 05C now!
10-day predictions


NORAD ID: 53763
Int'l Code: 2022-109D
Perigee: 503.7 km
Apogee: 506.1 km
Inclination: 35.0 °
Period: 94.6 minutes
Semi major axis: 6875 km
RCS: Unknown
Launch date: September 6, 2022
Source: People's Republic of China (PRC)
Launch site: Xichang Space Center, China (XSC)
Your satellite tracking list
Your tracking list is empty




NASA's NSSDC Master Catalog

Two Line Element Set (TLE):
1 53763U 22109D   26109.17591262  .00006809  00000-0  28658-3 0  9994
2 53763  34.9932   8.2000 0001767  76.1505 283.9406 15.22683067201376
Source of the keplerian elements: AFSPC